User: anonymous   Login
Location: Desert Center
(33.7130°N, 115.4010°W)
Time: 19:31:28
(UTC-07:00)
Language:

USA 215 - Orbit

View from above orbital plane
View from above orbital plane
View from above satellite
View from above satellite

Ground track
Ground track

The orbit data is extracted from the following two-line orbital elements,

1 37162U 10046A   16139.01539288 0.00000000  00000-0  00000-0 0    09
2 37162 123.0053  29.0961 0003882  91.6921 268.3079 13.41433663    00
Epoch (UTC): 18 May 2016 00:22:09
Eccentricity: 0.0003882
inclination: 123.0053°
perigee height: 1101 km
apogee height: 1107 km
right ascension of ascending node: 29.0961°
argument of perigee: 91.6921°
revolutions per day: 13.41433663
mean anomaly at epoch: 268.3079°
orbit number at epoch: 0

The dashed part of the orbit path shows where the satellite is in the earth's shadow,  

DLR